Beach, ND

10:26 PM MST on February 23, 2017 (GMT -0700)
Beach

Weather History for K20U - May, 2013

Change the Weather History Date:

Tuesday, May 7, 2013

  Actual Average (KGDV) Record (KGDV)
Temperature  
Mean Temperature 55 °F -  
Max Temperature 75 °F 59 °F 80 °F (2004)
Min Temperature 35 °F 36 °F 30 °F (2002)
Degree Days  
Heating Degree Days 10    
Growing Degree Days 5 (Base 50)    
Moisture  
Dew Point 27 °F    
Average Humidity 36    
Maximum Humidity 65    
Minimum Humidity 15    
Precipitation  
Precipitation 0.00 in - - ()
Sea Level Pressure  
Sea Level Pressure 29.90 in    
Wind  
Wind Speed 7 mph (SE)    
Max Wind Speed 14 mph    
Max Gust Speed 17 mph    
Visibility 10 miles    
Events      
Averages and records for this station are not official NWS values.
T = Trace of Precipitation, MM = Missing Value Source: NWS Daily Summary

Daily Weather History Graph

Daily Weather History Graph

Search for Another Location

Airport or City:

Trip Planner

Search our weather history database for the weather conditions in past years. The results will help you decide how hot, cold, wet, or windy it might be!

Date:

Astronomy

May. 07, 2013 Rise Set
Actual Time 5:31 AM MDT 8:14 PM MDT
Civil Twilight 4:56 AM MDT 8:49 PM MDT
Nautical Twilight 4:12 AM MDT 9:33 PM MDT
Astronomical Twilight 3:20 AM MDT 10:26 PM MDT
Moon 4:15 AM MDT (5/7) 6:10 PM MDT (5/7)
Length of Visible Light 15h 53m
Length of Day
14h 43m
Waning Crescent, 5% of the Moon is Illuminated
May 7
Waning Crescent
May 9
New
May 17
First Quarter
May 24
Full
May 31
Last Quarter

Hourly Weather History & Observations

Time (MDT) Temp. Windchill Dew Point Humidity Pressure Visibility Wind Dir Wind Speed Gust Speed Precip Events Conditions
12:15 AM 41.0 °F 35.2 °F 26.6 °F 57% 29.99 in 10.0 mi SSE 9.2 mph - N/A   Clear
12:35 AM 44.6 °F 39.7 °F 26.6 °F 49% 29.98 in 10.0 mi SSE 9.2 mph - N/A   Clear
12:55 AM 41.0 °F 34.7 °F 26.6 °F 57% 29.98 in 10.0 mi SE 10.4 mph - N/A   Clear
1:15 AM 39.2 °F 35.9 °F 26.6 °F 61% 29.98 in 10.0 mi SSE 4.6 mph - N/A   Clear
1:35 AM 39.2 °F 35.0 °F 26.6 °F 61% 29.97 in 10.0 mi SE 5.8 mph - N/A   Clear
1:55 AM 39.2 °F 35.0 °F 26.6 °F 61% 29.97 in 10.0 mi SE 5.8 mph - N/A   Clear
2:15 AM 39.2 °F - 26.6 °F 61% 29.96 in 10.0 mi Calm Calm - N/A   Clear
2:35 AM 39.2 °F 37.0 °F 24.8 °F 56% 29.96 in 10.0 mi SSE 3.5 mph - N/A   Clear
2:55 AM 39.2 °F 35.9 °F 24.8 °F 56% 29.95 in 10.0 mi SSE 4.6 mph - N/A   Partly Cloudy
3:15 AM 41.0 °F 37.1 °F 24.8 °F 53% 29.95 in 10.0 mi SE 5.8 mph - N/A   Partly Cloudy
3:35 AM 41.0 °F 37.1 °F 24.8 °F 53% 29.95 in 10.0 mi SE 5.8 mph - N/A   Partly Cloudy
3:55 AM 39.2 °F 35.0 °F 24.8 °F 56% 29.95 in 10.0 mi SE 5.8 mph - N/A   Partly Cloudy
4:15 AM 39.2 °F 35.0 °F 24.8 °F 56% 29.94 in 10.0 mi SE 5.8 mph - N/A   Clear
4:35 AM 39.2 °F 35.9 °F 24.8 °F 56% 29.94 in 10.0 mi SE 4.6 mph - N/A   Clear
4:55 AM 37.4 °F 32.8 °F 24.8 °F 60% 29.94 in 10.0 mi SE 5.8 mph - N/A   Clear
5:15 AM 39.2 °F 35.0 °F 24.8 °F 56% 29.94 in 10.0 mi SE 5.8 mph - N/A   Clear
5:35 AM 37.4 °F 32.1 °F 24.8 °F 60% 29.93 in 10.0 mi SSE 6.9 mph - N/A   Clear
5:55 AM 35.6 °F 29.9 °F 24.8 °F 65% 29.93 in 10.0 mi SE 6.9 mph - N/A   Clear
6:15 AM 37.4 °F 33.8 °F 26.6 °F 65% 29.93 in 10.0 mi SSE 4.6 mph - N/A   Clear
6:35 AM 41.0 °F 38.0 °F 28.4 °F 61% 29.93 in 10.0 mi SSE 4.6 mph - N/A   Clear
6:55 AM 44.6 °F 41.4 °F 28.4 °F 53% 29.92 in 10.0 mi SSE 5.8 mph - N/A   Clear
7:15 AM 48.2 °F - 28.4 °F 46% 29.92 in 10.0 mi SE 8.1 mph - N/A   Clear
7:35 AM 53.6 °F - 26.6 °F 35% 29.92 in 10.0 mi South 8.1 mph - N/A   Clear
7:55 AM 55.4 °F - 26.6 °F 33% 29.92 in 10.0 mi SSE 8.1 mph - N/A   Clear
8:15 AM 57.2 °F - 28.4 °F 33% 29.92 in 10.0 mi South 10.4 mph - N/A   Clear
8:35 AM 59.0 °F - 28.4 °F 31% 29.91 in 10.0 mi South 9.2 mph - N/A   Clear
8:55 AM 62.6 °F - 26.6 °F 26% 29.91 in 10.0 mi South 12.7 mph - N/A   Clear
9:15 AM 64.4 °F - 28.4 °F 26% 29.91 in 10.0 mi SSE 11.5 mph - N/A   Clear
9:35 AM 64.4 °F - 28.4 °F 26% 29.91 in 10.0 mi SSE 11.5 mph - N/A   Clear
9:55 AM 64.4 °F - 28.4 °F 26% 29.91 in 10.0 mi SSE 13.8 mph - N/A   Clear
10:15 AM 66.2 °F - 28.4 °F 24% 29.90 in 10.0 mi SSE 13.8 mph - N/A   Clear
10:35 AM 66.2 °F - 28.4 °F 24% 29.90 in 10.0 mi SSE 12.7 mph 17.3 mph N/A   Clear
10:55 AM 68.0 °F - 28.4 °F 23% 29.89 in 10.0 mi SSE 11.5 mph 16.1 mph N/A   Clear
11:15 AM 68.0 °F - 30.2 °F 24% 29.89 in 10.0 mi South 6.9 mph - N/A   Clear
11:35 AM 69.8 °F - 28.4 °F 21% 29.89 in 10.0 mi South 8.1 mph 17.3 mph N/A   Clear
11:55 AM 71.6 °F - 28.4 °F 20% 29.88 in 10.0 mi ESE 8.1 mph - N/A   Clear
12:15 PM 69.8 °F - 26.6 °F 20% 29.88 in 10.0 mi SE 6.9 mph - N/A   Clear
12:35 PM 71.6 °F - 26.6 °F 19% 29.87 in 10.0 mi ESE 6.9 mph - N/A   Clear
12:55 PM 71.6 °F - 28.4 °F 20% 29.87 in 10.0 mi ESE 8.1 mph - N/A   Clear
1:15 PM 73.4 °F - 26.6 °F 18% 29.86 in 10.0 mi East 5.8 mph - N/A   Clear
1:35 PM 73.4 °F - 28.4 °F 19% 29.86 in 10.0 mi ESE 10.4 mph 16.1 mph N/A   Clear
1:55 PM 73.4 °F - 28.4 °F 19% 29.86 in 10.0 mi SE 8.1 mph - N/A   Clear
2:15 PM 73.4 °F - 26.6 °F 18% 29.85 in 10.0 mi SE 9.2 mph - N/A   Clear
2:35 PM 73.4 °F - 26.6 °F 18% 29.85 in 10.0 mi Calm Calm - N/A   Clear
2:55 PM 75.2 °F - 26.6 °F 17% 29.85 in 10.0 mi SE 8.1 mph - N/A   Clear
3:15 PM 73.4 °F - 26.6 °F 18% 29.84 in 10.0 mi SSW 9.2 mph - N/A   Clear
3:35 PM 75.2 °F - 24.8 °F 15% 29.84 in 10.0 mi ESE 9.2 mph - N/A   Clear
3:55 PM 75.2 °F - 24.8 °F 15% 29.84 in 10.0 mi ESE 4.6 mph - N/A   Clear
4:15 PM 75.2 °F - 26.6 °F 17% 29.84 in 10.0 mi SE 8.1 mph - N/A   Clear
4:35 PM 75.2 °F - 24.8 °F 15% 29.83 in 10.0 mi ENE 4.6 mph - N/A   Clear
4:55 PM 75.2 °F - 24.8 °F 15% 29.83 in 10.0 mi North 4.6 mph - N/A   Clear
5:15 PM 75.2 °F - 24.8 °F 15% 29.83 in 10.0 mi ESE 3.5 mph - N/A   Clear
5:35 PM 75.2 °F - 26.6 °F 17% 29.83 in 10.0 mi WSW 4.6 mph - N/A   Clear
5:55 PM 75.2 °F - 26.6 °F 17% 29.84 in 10.0 mi NE 5.8 mph - N/A   Clear
6:15 PM 73.4 °F - 26.6 °F 18% 29.84 in 10.0 mi East 11.5 mph - N/A   Partly Cloudy
6:35 PM 73.4 °F - 26.6 °F 18% 29.84 in 10.0 mi East 8.1 mph - N/A   Clear
6:55 PM 73.4 °F - 24.8 °F 16% 29.84 in 10.0 mi ENE 10.4 mph - N/A   Clear
7:15 PM 71.6 °F - 26.6 °F 19% 29.85 in 10.0 mi NE 9.2 mph - N/A   Clear
7:35 PM 68.0 °F - 26.6 °F 21% 29.85 in 10.0 mi NE 6.9 mph - N/A   Clear
7:55 PM 64.4 °F - 26.6 °F 24% 29.86 in 9.0 mi NE 8.1 mph - N/A   Clear
8:15 PM 59.0 °F - 26.6 °F 29% 29.86 in 10.0 mi NE 8.1 mph - N/A   Clear
8:35 PM 55.4 °F - 28.4 °F 36% 29.87 in 10.0 mi NE 9.2 mph - N/A   Clear
8:55 PM 53.6 °F - 28.4 °F 38% 29.88 in 10.0 mi NNE 8.1 mph - N/A   Clear
9:15 PM 51.8 °F - 28.4 °F 41% 29.89 in 10.0 mi North 4.6 mph - N/A   Clear
9:35 PM 50.0 °F - 30.2 °F 47% 29.89 in 10.0 mi NNW 4.6 mph - N/A   Clear
9:55 PM 48.2 °F - 30.2 °F 50% 29.89 in 10.0 mi NW 3.5 mph - N/A   Clear
10:15 PM 50.0 °F - 28.4 °F 43% 29.90 in 10.0 mi Calm Calm - N/A   Clear
10:35 PM 48.2 °F - 30.2 °F 50% 29.90 in 10.0 mi Calm Calm - N/A   Clear
10:55 PM 50.0 °F - 28.4 °F 43% 29.90 in 10.0 mi Calm Calm - N/A   Clear
11:15 PM 50.0 °F - 28.4 °F 43% 29.90 in 10.0 mi NNE 4.6 mph - N/A   Clear
11:35 PM 48.2 °F - 30.2 °F 50% 29.91 in 10.0 mi Calm Calm - N/A   Clear
11:55 PM 46.4 °F - 32.0 °F 57% 29.91 in 10.0 mi Calm Calm - N/A   Clear